Location: Adam Adler House
(38.2935°N, 122.4533°W)
Time: 07:45:57
(UTC+00:00)

Daily predictions for brighter satellites

Satellite Brightness Start Highest point End
(mag) Time Altitude Azimuth Time Altitude Azimuth Time Altitude Azimuth
USA 215 4.3 12:10:21 10° E 12:16:08 35° NNE 12:16:29 35° NNE
Cosmos 2344 4.0 12:17:06 45° SSE 12:18:58 56° ESE 12:26:28 10° NE
Cosmos 2297 Rocket 2.7 12:39:08 57° ESE 12:39:08 57° ESE 12:43:55 10° SSE
Cosmos 2184 Rocket 4.2 12:43:47 21° N 12:48:00 66° E 12:54:13 10° SSE
Cosmos 2227 Rocket 2.3 12:50:18 73° ENE 12:50:18 73° ENE 12:55:50 10° SSE
Cosmos 2278 4.1 12:57:35 10° S 13:03:11 62° ESE 13:08:50 10° NNE
COSMO-SKYMED 1 3.6 12:59:54 10° SE 13:04:01 44° ENE 13:05:42 29° NNE
SEDSat Delta rocket 4.4 13:05:59 40° SSW 13:06:49 42° S 13:12:01 10° ESE
Cosmos 2369 3.5 13:09:59 57° SW 13:11:12 81° WNW 13:16:57 10° NNE
STARLINK-61 4.2 13:12:31 52° ESE 13:12:31 52° ESE 13:16:01 10° ENE
COSMOS 2455 3.7 13:06:40 10° S 13:12:23 48° ESE 13:18:08 10° NE
Cosmos 1953 3.6 13:11:52 10° SSE 13:15:40 42° E 13:19:30 10° NNE
Cosmos 2074 Rocket 3.9 13:15:28 24° NNW 13:19:19 67° W 13:25:27 10° S
METEOR-M 4.5 13:14:09 10° NNE 13:19:28 65° ESE 13:24:46 10° S
CZ-3B R/B 3.3 13:26:29 11° S 13:26:29 11° S 13:27:35 10° S
STARLINK-75 4.2 13:26:15 38° S 13:27:16 50° SE 13:31:03 10° ENE
ALOS 2.3 13:22:37 10° NNE 13:27:19 81° ESE 13:31:58 10° S
CZ-4B R/B 4.2 13:26:40 10° NNE 13:32:02 48° E 13:37:16 10° S
STARLINK-58 4.2 13:33:27 26° SSW 13:35:24 53° SE 13:39:20 10° ENE
Cosmos 1980 Rocket 2.2 13:30:23 10° SSW 13:36:04 85° ESE 13:41:47 10° NNE
STARLINK-41 4.1 13:35:14 27° SSW 13:37:05 52° SE 13:40:52 10° ENE
STARLINK-62 4.1 13:35:12 28° SSW 13:37:06 57° SE 13:41:03 10° NE
SJ-12 3.8 13:35:50 10° N 13:39:51 64° WNW 13:43:53 10° SSW
NOSS 2-2 (C) 3.8 13:42:05 38° NNW 13:42:05 38° NNW 13:45:00 10° NNE
Meteor 1-24 Rocket 4.4 13:43:19 34° W 13:43:19 34° W 13:48:23 10° SSW
Cosmos 2228 4.0 13:39:27 10° SSE 13:43:41 50° E 13:47:57 10° NNE
FENGYUN 3A 3.5 13:38:36 10° N 13:44:00 76° WNW 13:49:23 10° SSW
Cosmos 1697 Rocket 2.9 13:42:59 32° WSW 13:44:53 43° WNW 13:50:14 10° N
STARLINK 4.0 13:42:59 21° SSW 13:45:22 58° SE 13:49:11 10° NE
Cosmos 1602 Rocket 3.6 13:46:02 40° NW 13:47:06 50° W 13:51:16 10° SSW
STARLINK-46 4.5 13:48:28 19° ENE 13:48:28 19° ENE 13:49:38 10° E
Cosmos 2181 Rocket 4.5 13:43:04 10° S 13:49:06 62° E 13:55:17 10° NNE
NOSS 3-4 (A) 4.3 13:46:04 10° S 13:51:45 50° ESE 13:57:40 10° NE
NOSS 3-4 (C) 4.3 13:46:11 10° S 13:51:52 49° ESE 13:57:46 10° NE
SKYMED 2 3.7 13:47:46 10° S 13:51:59 50° W 13:54:15 25° NW
NOSS 2-2 (E) 4.4 13:53:11 26° NNW 13:53:11 26° NNW 13:55:50 10° NNE
MOS 1-B 4.3 13:47:17 10° N 13:53:00 64° WNW 13:58:43 10° SSW
Cosmos 773 Rocket 4.4 13:52:06 18° SW 13:55:31 38° WNW 14:00:27 10° N
ATLAS 3B R/B 4.4 13:50:17 10° NNW 13:55:47 26° NE 14:01:22 10° E
Cosmos 2341 Rocket 4.0 13:51:30 10° N 13:57:48 84° E 14:04:01 10° S
STARLINK-34 3.5 13:55:47 20° SW 13:58:31 89° SSE 14:02:34 10° NE
USA 215 3.2 13:52:15 10° SE 13:58:47 75° SW 14:03:51 18° NW
STARLINK-24 3.4 13:57:54 19° SW 14:00:44 88° NW 14:04:47 10° NE
STARLINK-81 3.5 13:58:27 16° SW 14:01:37 86° SE 14:05:40 10° NE
Okean O Rocket 1.5 13:58:24 10° N 14:02:52 79° WNW 14:07:17 10° SSW
STARLINK-54 3.4 14:00:28 18° SW 14:03:26 83° NW 14:07:28 10° NE
Cosmos 1758 Rocket 3.4 13:59:25 10° N 14:03:48 81° W 14:08:12 10° S
SL-8 Rocket 4.3 13:58:05 10° N 14:04:16 67° E 14:10:23 10° SSE
NOSS 3-2 (A) 4.3 13:56:45 10° NNW 14:04:29 75° ENE 14:13:00 10° SE
STARLINK-77 3.4 14:01:38 15° SW 14:04:56 88° NW 14:08:58 10° NE
Helios 1A Rocket 2.9 14:01:43 10° NNE 14:05:51 87° ESE 14:09:58 10° SSW
STARLINK-25 3.4 14:03:16 14° SW 14:06:37 85° NW 14:10:39 10° NE
Nadezhda 1 Rocket 4.5 14:02:16 10° SW 14:07:42 34° WNW 14:13:09 10° NNW
STARLINK-71 3.4 14:05:21 16° SW 14:08:27 74° NW 14:12:29 10° NE
Cosmos 2082 4.2 14:05:34 18° NW 14:09:18 40° WSW 14:14:33 10° S
STARLINK-79 3.4 14:06:25 14° SW 14:09:53 80° NW 14:13:55 10° NE
STARLINK-78 3.4 14:08:05 13° SW 14:11:35 76° NW 14:15:37 10° NE
CZ-4B DEB 4.4 14:06:24 10° N 14:11:42 47° WNW 14:16:57 10° SW
USA 116 4.3 14:06:54 10° S 14:11:51 57° W 14:16:20 10° NNW
Cosmos 923 Rocket 4.0 14:06:48 10° SSW 14:12:02 88° WNW 14:17:22 10° NNE
STARLINK-57 3.4 14:09:54 14° WSW 14:13:19 70° NW 14:17:22 10° NE
STARLINK-49 3.4 14:11:12 12° SW 14:14:51 72° NW 14:18:53 10° NE
STARLINK-27 3.5 14:12:48 12° WSW 14:16:30 69° NW 14:20:31 10° NE
STARLINK-74 3.5 14:14:23 11° WSW 14:18:10 67° NW 14:22:10 10° NE
STARLINK-39 3.5 14:16:00 11° WSW 14:19:49 65° NW 14:23:50 10° NE
BREEZE-M DEB (TANK) 4.2 14:13:27 15° WNW 14:20:26 33° WSW 14:23:52 10° S
STARLINK 3.5 14:17:36 11° WSW 14:21:29 62° NW 14:25:28 10° NE
Cosmos 2297 Rocket 3.7 14:21:01 15° W 14:21:43 16° W 14:24:58 10° SW
SL-4 R/B 2.9 14:19:03 13° NNW 14:21:43 32° NNE 14:24:50 10° E
Cosmos 2058 Rocket 3.2 14:17:59 10° S 14:22:24 78° E 14:26:48 10° N
CENTAUR R/B 3.8 14:14:29 10° NNW 14:22:29 56° NE 14:31:03 10° SE
Cosmos 44 Rocket 3.4 14:19:19 14° NW 14:23:11 51° WSW 14:27:48 10° S
STARLINK-69 3.6 14:19:40 12° WSW 14:23:21 55° NW 14:27:19 10° NE
Cosmos 2322 Rocket 3.2 14:18:21 10° S 14:23:47 52° ESE 14:29:17 10° NNE
STARLINK-21 3.6 14:20:52 10° WSW 14:24:49 58° NW 14:28:48 10° NE
ADEOS Rocket 2.9 14:19:44 10° SSE 14:25:14 81° ENE 14:30:47 10° N
ATLAS 2AS CENTAUR R/B 3.0 14:18:38 10° SW 14:26:32 75° NW 14:34:36 10° NNE
STARLINK-45 3.7 14:23:00 11° WSW 14:26:44 50° NW 14:30:40 10° NE
USA 32 4.0 14:21:55 10° N 14:27:05 62° W 14:32:15 10° S
SMAP 3.3 14:23:19 10° NNE 14:28:00 76° ESE 14:32:37 10° S
STARLINK-70 3.7 14:24:22 10° WSW 14:28:16 51° NW 14:32:13 10° NE
STARLINK-76 3.7 14:25:53 10° WSW 14:29:49 52° NW 14:33:46 10° NE
Cosmos 1825 Rocket 3.8 14:25:59 10° NNW 14:30:07 45° W 14:34:14 10° SSW
STARLINK 3.7 14:27:35 10° WSW 14:31:30 50° NW 14:35:26 10° NE
Lacrosse 5 3.5 14:27:45 10° SSW 14:32:25 38° SE 14:37:06 10° ENE
STARLINK-33 3.8 14:29:28 11° WSW 14:32:42 40° NW 14:36:11 10° NE
Cosmos 2218 Rocket 4.1 14:26:35 10° N 14:33:00 86° W 14:39:20 10° S
STARLINK-32 3.8 14:29:13 10° WSW 14:33:07 49° NW 14:37:03 10° NE
Cosmos 2227 Rocket 3.8 14:32:12 12° W 14:33:31 13° W 14:36:09 10° SW
Cosmos 2344 4.4 14:27:26 10° W 14:33:52 30° NW 14:40:52 10° NNE
STARLINK-40 3.8 14:30:54 10° WSW 14:34:47 47° NW 14:38:42 10° NE
STARLINK-42 3.8 14:31:40 10° WSW 14:35:18 42° NW 14:38:57 10° NE
H-2A R/B 2.7 14:31:25 10° N 14:35:19 70° WNW 14:39:11 10° SSW
STARLINK-64 3.8 14:32:30 10° WSW 14:36:10 42° NW 14:39:49 10° NE
STARLINK-44 3.9 14:32:32 10° WSW 14:36:24 46° NW 14:40:18 10° NE
STARLINK-66 3.9 14:34:00 10° WSW 14:37:23 36° NW 14:40:47 10° NE
STARLINK-37 4.0 14:34:23 10° WSW 14:38:13 42° NW 14:42:03 10° NE
STARLINK-36 3.9 14:35:56 10° WSW 14:39:46 43° NW 14:43:38 10° NE
USA 238 DEB 4.0 14:32:37 10° NW 14:39:47 64° WSW 14:47:07 10° SSE
USA 238 4.0 14:32:43 10° NW 14:39:53 64° WSW 14:47:14 10° SSE
COSMO-SKYMED 1 4.2 14:37:57 10° SW 14:40:22 15° W 14:42:48 10° WNW
STARLINK-68 4.1 14:37:52 10° WSW 14:41:39 38° NW 14:45:26 10° NE
Cosmos 2263 Rocket 2.5 14:36:16 10° NNW 14:41:56 73° ENE 14:47:35 10° SSE
CZ-4 R/B 4.1 14:38:58 10° NE 14:42:30 26° E 14:46:00 10° SSE
STARLINK-55 4.1 14:39:16 10° W 14:42:34 32° NNW 14:45:54 10° NNE
STARLINK-63 4.1 14:39:25 10° WSW 14:43:12 39° NW 14:46:59 10° NE
Cosmos 864 Rocket 4.5 14:38:01 10° N 14:44:13 78° W 14:50:27 10° S
PSLV R/B 3.8 14:42:31 10° SW 14:44:14 28° SSE 14:45:58 10° E
STARLINK-35 4.1 14:40:58 10° WSW 14:44:46 39° NW 14:48:34 10° NE
Cosmos 1908 3.4 14:41:10 10° SSW 14:44:57 48° W 14:48:46 10° N
Cosmos 1606 Rocket 4.4 14:41:28 10° SW 14:45:18 28° WNW 14:49:08 10° NNW
Abrixas rocket 4.0 14:43:39 10° NNW 14:45:55 19° NNE 14:48:10 10° ENE
STARLINK-51 4.1 14:42:38 10° WSW 14:46:24 38° NW 14:50:11 10° NE
Cosmos 1300 3.9 14:43:05 10° SSE 14:46:44 46° E 14:50:24 10° NNE
Cosmos 1726 Rocket 4.3 14:44:03 10° SW 14:48:03 33° WNW 14:52:04 10° NNW
STARLINK-30 4.1 14:44:18 10° WSW 14:48:03 37° NW 14:51:50 10° NE
STARLINK-72 4.2 14:45:59 10° WSW 14:49:42 36° NNW 14:53:28 10° NE
Cosmos 1726 3.4 14:48:22 10° SW 14:51:11 20° WNW 14:54:00 10° NNW
STARLINK-50 4.2 14:47:40 10° W 14:51:23 35° NNW 14:55:07 10° NE
Cosmos 1953 4.1 14:50:27 10° W 14:52:17 13° WNW 14:54:07 10° NW
Cosmos 1703 3.6 14:48:38 10° NNW 14:52:26 46° W 14:56:12 10° SSW
STARLINK-59 4.3 14:49:29 10° W 14:53:09 33° NNW 14:56:50 10° NNE
STARLINK-28 4.4 14:50:34 10° W 14:53:34 25° NNW 14:56:36 10° NNE
STARLINK 1032 4.3 14:50:42 10° SSW 14:54:04 49° SE 14:57:27 10° ENE
FALCON 9 DEB 3.6 14:53:24 10° WNW 14:54:30 14° NNW 14:55:36 10° N
STARLINK-56 4.3 14:51:03 10° W 14:54:43 33° NNW 14:58:24 10° NNE
STARLINK 1040 3.1 14:53:10 10° SW 14:55:59 66° SE 14:58:49 10° NE
Starlink (trailer) 4.3 14:52:44 10° W 14:56:23 33° NNW 15:00:03 10° NNE
STARLINK 1011 4.1 14:53:04 10° SSW 14:56:28 52° SE 14:59:51 10° ENE
STARLINK-38 4.4 14:54:24 10° W 14:58:02 32° NNW 15:01:40 10° NNE
COSMOS 2455 3.7 14:53:27 10° WSW 14:58:31 28° NW 15:03:38 10° N
STARLINK 1036 4.0 14:55:28 10° SSW 14:58:52 55° SE 15:02:17 10° ENE
STARLINK-65 4.4 14:56:05 10° W 14:59:41 31° NNW 15:03:18 10° NNE
SL-16 R/B 2.2 14:55:34 10° SSW 15:01:10 64° WNW 15:06:49 10° NNE
Cosmos 1680 Rocket 4.0 14:57:28 10° SW 15:02:27 41° WNW 15:07:29 10° N
